Regional Weather Roundup
Issued by NWS

Home | Current Version | Previous Version | Text Only | Print | Product List | Glossary On
Versions: 1 2 3 4 5 6 7 8 9 10 11 12 13 14 15 16 17 18 19 20 21 22 23 24 25 26 27 28 29 30 31 32 33 34 35 36 37 38 39 40 41 42 43 44 45 46 47 48 49 50
000
ASUS44 KFWD 222103
RWRTX
NORTH TEXAS HOURLY WEATHER ROUNDUP
NATIONAL WEATHER SERVICE FORT WORTH TX
400 PM CDT FRI SEP 22 2017

NOTE: "FAIR" INDICATES FEW OR NO CLOUDS BELOW 12,000 FEET WITH NO
SIGNIFICANT WEATHER AND/OR OBSTRUCTIONS TO VISIBILITY.

TXZ118-119-222200-
DALLAS/FORT WORTH METROPLEX

CITY           SKY/WX    TMP DP  RH WIND       PRES   REMARKS
DFW AIRPORT    MOSUNNY   94  66  39 SE17      29.89F HX  97
DALLAS LOVE    MOSUNNY   91  64  40 SE12G21   29.90F HX  92
FTW MEACHAM    MOSUNNY   94  69  44 SE16G24   29.89F HX  99
DAL-EXECUTIVE  MOSUNNY   93  64  38 S13G18    29.90F HX  94
FTW-ALLIANCE   MOSUNNY   93  68  43 SE14G22   29.90F HX  97
FTW-NAS-JRB    MOSUNNY   94  66  39 SE15      29.90F HX  97
FTW-SPINKS     MOSUNNY   93  64  38 SE13      29.92F HX  95
ARLINGTON      MOSUNNY   92  67  43 SE13G22   29.90F HX  95
GRAND PRAIRIE  SUNNY     91  63  38 SE8G16    29.91F HX  92
ADDISON        MOSUNNY   91  63  38 SE13G21   29.92F HX  92
MESQUITE       MOSUNNY   93  59  31 S13G18    29.92F HX  92
LANCASTER      MOSUNNY   92  65  40 SE15      29.92F HX  95
$$

TXZ091>094-102>105-117-120-121-131>134-222200-
NORTH CENTRAL TEXAS

CITY           SKY/WX    TMP DP  RH WIND       PRES   REMARKS
SHRMAN/DENISON SUNNY     90  66  45 SE13      29.94F HX  92
GAINESVILLE    MOSUNNY   89  67  49 SE13G22   29.94F HX  92
BOWIE          MOSUNNY   89  69  51 SE9G17    29.91F HX  94
BRIDGEPORT     SUNNY     90  66  45 S12G21    29.92F HX  93
DECATUR        SUNNY     89  66  46 S16       29.90F HX  91
DENTON         MOSUNNY   90  69  50 SE13      29.90F HX  94
MCKINNEY       SUNNY     91  67  44 SE15G21   29.92F HX  94
BONHAM         SUNNY     90  63  39 S15G22    29.94F HX  90
ROCKWALL       SUNNY     91  64  40 S12G18    29.93F HX  93
TERRELL        SUNNY     93  61  34 S8G18     29.92F HX  93
WAXAHACHIE     MOSUNNY   92  64  38 S6        29.92F HX  94
CLEBURNE       MOSUNNY   91  68  46 S13G21    29.92F HX  95
GRANBURY       MOSUNNY   93  66  41 SE14      29.90F HX  95
$$

TXZ083>090-098>101-113>116-127>130-139>142-154-155-222200-
WESTERN NORTH TEXAS

CITY           SKY/WX    TMP DP  RH WIND       PRES   REMARKS
WICHITA FALLS  MOSUNNY   90  68  48 SE17G25   29.88F HX  94
WF-KICKAPOO    MOSUNNY   91  69  48 SE16G28   29.90F HX  95
VERNON         MOSUNNY   95  56  26 SE16G24   29.86F HX  93
ABILENE        PTSUNNY   92  63  38 S18G25    29.89F HX  93
ABILENE-DYESS  MOSUNNY   94  65  38 SE12      29.87F HX  96
BRECKENRIDGE   SUNNY     94  61  32 S13G23    29.88F HX  94
CISCO          MOSUNNY   91  63  38 S16G23    29.91F HX  92
EASTLAND       PTSUNNY   92  63  37 SE13G23   29.89F HX  93
RANGER         SUNNY     89  65  43 SE16      29.91F HX  91
MINERAL WELLS  MOSUNNY   91  67  44 SE15G22   29.88F HX  94
STEPHENVILLE   MOSUNNY   91  64  41 SE15      29.94F HX  92
COMANCHE       PTSUNNY   94  65  38 S17G23    29.90F HX  96
BROWNWOOD      LGT RAIN  93  63  36 S14       29.88F HX  94
COLEMAN        SUNNY     92  62  35 SE18      29.89F HX  93
$$

TXZ143>147-156>162-174-175-222200-
CENTRAL TEXAS

CITY           SKY/WX    TMP DP  RH WIND       PRES   REMARKS
WACO           MOSUNNY   93  65  39 S12       29.90F HX  95
WACO-TSTC      MOSUNNY   95  63  34 S8G16     29.91F HX  96
WACO-MCGREGOR  PTSUNNY   93  68  43 SE18      29.90F HX  97
HILLSBORO      MOSUNNY   94  65  38 S10G20    29.91F HX  96
CORSICANA      SUNNY     91  66  43 S14       29.93F HX  93
MEXIA          MOSUNNY   90  66  44 SE7G21    29.92F HX  93
CAMERON        SUNNY     92  67  43 S8        29.91F HX  95
TEMPLE         MOSUNNY   91  68  46 S9G21     29.91F HX  95
KILLEEN        MOSUNNY   89  69  51 SE14      29.91S HX  92
FORT HOOD      SUNNY     88  69  52 SE17G25   29.89F HX  92
GATESVILLE     SUNNY     91  68  46 SE8G17    29.92F HX  95
HAMILTON       MOSUNNY   92  64  38 SE12G23   29.92F HX  94
LAMPASAS       MOSUNNY   91  70  50 SE14      29.91S HX  96
$$

TXZ095>097-106>112-122>126-135>138-148>153-164>167-222200-
EAST TEXAS

CITY           SKY/WX    TMP DP  RH WIND       PRES   REMARKS
PARIS          SUNNY     91  67  44 SE10      29.95F HX  94
SULPHUR SPRNGS SUNNY     92  62  37 S7        29.96F HX  92
MOUNT PLEASANT SUNNY     90  69  49 E3        29.95F HX  94
GILMER         SUNNY     89  67  48 SE6       29.95F HX  93
MINEOLA        MOSUNNY   91  66  43 SE8       29.94F HX  94
TYLER          SUNNY     90  63  40 SE7       29.94F HX  91
LONGVIEW       MOSUNNY   91  68  46 SE7       29.93F HX  95
MARSHALL       PTSUNNY   87  70  56 CALM      29.96F HX  92
ATHENS         MOSUNNY   90  64  43 SE9       29.92F HX  91
PALESTINE      MOSUNNY   89  69  50 E6        29.95F HX  93
JACKSONVILLE   MOSUNNY   89  66  47 S8        29.98F HX  91
HENDERSON      SUNNY     90  68  49 E6        29.96F HX  93
CENTER         PTCLDY    93  70  46 S3        29.96F HX  98
NACOGDOCHES    SUNNY     88  69  53 VRB3      29.95F HX  92
$$

SUPPLEMENTAL OBSERVATIONS (NWS FORT WORTH AREA)

CITY           SKY/WX    TMP DP  RH WIND       PRES   REMARKS
$$

SUPPLEMENTAL OBSERVATIONS (NWS NORMAN AREA)

CITY           SKY/WX    TMP DP  RH WIND       PRES   REMARKS
GOODLETT         N/A     93  60  33 SE18      29.85F HX  92
ODELL            N/A     94  64  37 SE21      29.87F HX  95
CROWELL          N/A     96  63  34 S18       29.86F HX  97
KNOX CITY        N/A     96  59  28 S17G31    29.86F HX  95
SEYMOUR          N/A     94  59  31 SE16G22   29.86F HX  93
$$

SUPPLEMENTAL OBSERVATIONS (NWS SAN ANGELO AREA)

CITY           SKY/WX    TMP DP  RH WIND       PRES   REMARKS
HASKELL          N/A     91  58  32 S14       29.87F HX  90
THROCKMORTON     N/A     94  66  39 SE12      29.89F HX  97
STAMFORD         N/A     94  64  36 SE22      29.87F HX  96
CLYDE            N/A     92  64  39 SE17      29.92F HX  93
$$

SUPPLEMENTAL OBSERVATIONS (NWS SHREVEPORT AREA)

CITY           SKY/WX    TMP DP  RH WIND       PRES   REMARKS
$$

SUPPLEMENTAL OBSERVATIONS ARE A COLLECTION OF AUTOMATED INSTRUMENTS
THAT ARE MAINTAINED BY A VARIETY OF FEDERAL AND STATE AGENCIES.
CERTAIN ELEMENTS...SUCH AS HUMIDITY VALUES AND SUSTAINED WIND
SPEEDS...MAY BE APPROXIMATED.





USA.gov is the U.S. government's official web portal to all federal, state and local government web resources and services.